WLW2296 MROC-MPTO

Flight info

Callsign WLW2296
Flight time 1h 44m
Altitude 37000
Route TEJAR3M LIO UA317 BUFEO DCT BITOR VUMAN2
Aircraft A346/H-SDE2E3FGHIJ3J4J5M1RWXY/LB1D1

Departure

Time 2026-05-09 13:30
Airport Juan Santamaría International Airport (MROC)

Arrival

Time 2026-05-09 15:14
Airport Tocumen International Airport (MPTO)
Time Latitude Longitude Altitude Speed Heading
2026-05-09 13:00 9.99677 -84.20557 3044 ft 0 kts 339°
2026-05-09 13:20 9.99658 -84.20549 3043 ft 4 kts 339°
2026-05-09 13:20 9.99634 -84.20540 3042 ft 4 kts 335°
2026-05-09 13:21 9.99618 -84.20529 3042 ft 4 kts 301°
2026-05-09 13:21 9.99615 -84.20521 3042 ft 4 kts 252°
2026-05-09 13:21 9.99622 -84.20508 3042 ft 4 kts 237°
2026-05-09 13:21 9.99640 -84.20478 3044 ft 3 kts 248°
2026-05-09 13:22 9.99641 -84.20475 3042 ft 0 kts 249°
2026-05-09 13:25 9.99634 -84.20492 3042 ft 10 kts 249°
2026-05-09 13:25 9.99557 -84.20700 3042 ft 18 kts 248°
2026-05-09 13:26 9.99507 -84.20827 3044 ft 20 kts 248°
2026-05-09 13:26 9.99448 -84.20977 3032 ft 27 kts 250°
2026-05-09 13:26 9.99375 -84.21183 3013 ft 34 kts 250°
2026-05-09 13:26 9.99303 -84.21376 3001 ft 31 kts 249°
2026-05-09 13:27 9.99218 -84.21598 2984 ft 36 kts 249°
2026-05-09 13:27 9.99130 -84.21841 2972 ft 24 kts 250°
2026-05-09 13:27 9.99088 -84.21965 2967 ft 10 kts 259°
2026-05-09 13:27 9.99092 -84.22049 2960 ft 13 kts 274°
2026-05-09 13:28 9.99079 -84.22147 2947 ft 16 kts 247°
2026-05-09 13:28 9.99013 -84.22202 2957 ft 10 kts 177°
2026-05-09 13:28 9.98948 -84.22178 2949 ft 7 kts 150°
2026-05-09 13:28 9.98931 -84.22147 2956 ft 4 kts 98°
2026-05-09 13:29 9.98932 -84.22123 2959 ft 2 kts 77°
2026-05-09 13:29 9.98938 -84.22102 2960 ft 10 kts 72°
2026-05-09 13:29 9.99034 -84.21838 2977 ft 71 kts 70°
2026-05-09 13:29 9.99281 -84.21263 3004 ft 105 kts 64°
2026-05-09 13:30 9.99559 -84.20440 3048 ft 146 kts 63°
2026-05-09 13:30 10.00056 -84.19483 3427 ft 151 kts 67°
2026-05-09 13:30 10.00441 -84.18512 3993 ft 149 kts 70°
2026-05-09 13:30 10.00842 -84.17502 4464 ft 159 kts 69°
2026-05-09 13:31 10.01282 -84.16461 4939 ft 163 kts 69°
2026-05-09 13:31 10.01748 -84.15361 5250 ft 177 kts 68°
2026-05-09 13:31 10.02239 -84.14156 5577 ft 193 kts 68°
2026-05-09 13:31 10.02604 -84.12796 5907 ft 210 kts 89°
2026-05-09 13:32 10.02155 -84.11337 6244 ft 229 kts 122°
2026-05-09 13:32 9.99519 -84.09080 6945 ft 269 kts 143°
2026-05-09 13:32 9.97963 -84.07934 7445 ft 282 kts 142°
2026-05-09 13:33 9.96385 -84.06723 8160 ft 286 kts 141°
2026-05-09 13:33 9.94813 -84.05479 8908 ft 288 kts 140°
2026-05-09 13:33 9.93234 -84.04206 9611 ft 292 kts 140°
2026-05-09 13:33 9.91658 -84.02927 10300 ft 295 kts 140°
2026-05-09 13:34 9.90010 -84.01603 10774 ft 309 kts 140°
2026-05-09 13:34 9.88269 -84.00221 11100 ft 327 kts 140°
2026-05-09 13:34 9.86434 -83.98763 11430 ft 345 kts 140°
2026-05-09 13:34 9.84519 -83.97196 11806 ft 360 kts 135°
2026-05-09 13:35 9.83052 -83.95142 12431 ft 362 kts 114°
2026-05-09 13:35 9.82393 -83.92691 13260 ft 361 kts 94°
2026-05-09 13:35 9.82468 -83.90140 14064 ft 362 kts 85°
2026-05-09 13:35 9.82679 -83.87583 14809 ft 366 kts 84°
2026-05-09 13:36 9.82893 -83.84992 15507 ft 370 kts 85°
2026-05-09 13:36 9.83104 -83.82379 16198 ft 374 kts 85°
2026-05-09 13:36 9.83313 -83.79737 16902 ft 377 kts 85°
2026-05-09 13:36 9.83519 -83.77072 17562 ft 380 kts 85°
2026-05-09 13:37 9.83711 -83.74382 18227 ft 383 kts 85°
2026-05-09 13:37 9.83898 -83.71670 18864 ft 387 kts 85°
2026-05-09 13:37 9.84086 -83.68929 19458 ft 391 kts 85°
2026-05-09 13:37 9.84276 -83.66160 20007 ft 395 kts 85°
2026-05-09 13:38 9.84472 -83.63360 20568 ft 399 kts 85°
2026-05-09 13:38 9.84778 -83.60535 21070 ft 403 kts 82°
2026-05-09 13:38 9.85241 -83.57716 21576 ft 407 kts 78°
2026-05-09 13:38 9.85804 -83.54879 22083 ft 411 kts 78°
2026-05-09 13:39 9.86379 -83.52026 22551 ft 415 kts 78°
2026-05-09 13:39 9.86963 -83.49144 23029 ft 419 kts 78°
2026-05-09 13:39 9.87544 -83.46272 23469 ft 422 kts 78°
2026-05-09 13:39 9.88138 -83.43334 23901 ft 426 kts 78°
2026-05-09 13:40 9.88735 -83.40375 24309 ft 429 kts 78°
2026-05-09 13:40 9.89336 -83.37395 24739 ft 432 kts 78°
2026-05-09 13:40 9.89942 -83.34389 25138 ft 436 kts 78°
2026-05-09 13:40 9.90552 -83.31364 25577 ft 439 kts 78°
2026-05-09 13:41 9.91165 -83.28317 25972 ft 442 kts 78°
2026-05-09 13:41 9.91783 -83.25247 26358 ft 445 kts 78°
2026-05-09 13:41 9.92405 -83.22156 26736 ft 448 kts 78°
2026-05-09 13:41 9.93032 -83.19038 27129 ft 451 kts 78°
2026-05-09 13:42 9.93664 -83.15897 27496 ft 455 kts 78°
2026-05-09 13:42 9.94298 -83.12739 27876 ft 458 kts 78°
2026-05-09 13:42 9.94936 -83.09563 28242 ft 461 kts 78°
2026-05-09 13:42 9.95416 -83.06376 28562 ft 465 kts 84°
2026-05-09 13:43 9.95477 -83.03040 28920 ft 468 kts 92°
2026-05-09 13:43 9.95113 -82.99789 29268 ft 472 kts 99°
2026-05-09 13:43 9.94322 -82.96545 29604 ft 475 kts 106°
2026-05-09 13:43 9.93321 -82.93340 30025 ft 476 kts 107°
2026-05-09 13:44 9.92286 -82.90145 30512 ft 475 kts 108°
2026-05-09 13:44 9.91250 -82.86963 31020 ft 474 kts 108°
2026-05-09 13:44 9.90219 -82.83784 31495 ft 474 kts 107°
2026-05-09 13:44 9.89192 -82.80604 31955 ft 473 kts 107°
2026-05-09 13:45 9.88168 -82.77427 32405 ft 473 kts 107°
2026-05-09 13:45 9.87146 -82.74250 32858 ft 473 kts 107°
2026-05-09 13:45 9.86125 -82.71074 33299 ft 472 kts 107°
2026-05-09 13:45 9.85106 -82.67901 33737 ft 472 kts 107°
2026-05-09 13:46 9.84088 -82.64736 34176 ft 472 kts 107°
2026-05-09 13:46 9.83069 -82.61568 34601 ft 472 kts 107°
2026-05-09 13:46 9.82052 -82.58404 35015 ft 471 kts 107°
2026-05-09 13:46 9.81018 -82.55252 35439 ft 470 kts 108°
2026-05-09 13:47 9.79937 -82.52112 35802 ft 471 kts 109°
2026-05-09 13:47 9.78841 -82.48976 36102 ft 472 kts 109°
2026-05-09 13:47 9.77741 -82.45831 36386 ft 474 kts 109°
2026-05-09 13:47 9.76654 -82.42715 36660 ft 475 kts 109°
2026-05-09 13:48 9.75549 -82.39543 36904 ft 476 kts 109°
2026-05-09 13:48 9.74446 -82.36375 36946 ft 475 kts 109°
2026-05-09 13:48 9.72255 -82.30072 36955 ft 471 kts 109°
2026-05-09 13:49 9.70079 -82.23810 36956 ft 470 kts 109°
2026-05-09 13:49 9.67904 -82.17554 36956 ft 470 kts 109°
2026-05-09 13:50 9.65728 -82.11298 36957 ft 470 kts 109°
2026-05-09 13:50 9.63552 -82.05047 36957 ft 470 kts 109°
2026-05-09 13:51 9.61375 -81.98798 36957 ft 470 kts 109°
2026-05-09 13:51 9.59197 -81.92548 36957 ft 470 kts 109°
2026-05-09 13:52 9.57017 -81.86299 36957 ft 470 kts 109°
2026-05-09 13:52 9.54837 -81.80051 36957 ft 470 kts 109°
2026-05-09 13:53 9.52656 -81.73805 36957 ft 469 kts 109°
2026-05-09 13:53 9.50488 -81.67601 36957 ft 469 kts 109°
2026-05-09 13:54 9.48309 -81.61368 36956 ft 469 kts 109°
2026-05-09 13:54 9.46126 -81.55130 36957 ft 469 kts 109°
2026-05-09 13:55 9.43947 -81.48903 36957 ft 468 kts 109°
2026-05-09 13:55 9.41767 -81.42679 36951 ft 468 kts 109°
2026-05-09 13:56 9.39589 -81.36460 36948 ft 468 kts 109°
2026-05-09 13:56 9.37410 -81.30242 36947 ft 468 kts 109°
2026-05-09 13:57 9.35228 -81.24025 36948 ft 468 kts 109°
2026-05-09 13:57 9.33061 -81.17851 36933 ft 467 kts 109°
2026-05-09 13:58 9.30879 -81.11638 36929 ft 467 kts 109°
2026-05-09 13:58 9.28698 -81.05434 36930 ft 467 kts 109°
2026-05-09 13:59 9.26519 -80.99231 36929 ft 467 kts 109°
2026-05-09 13:59 9.24404 -80.93012 36928 ft 467 kts 108°
2026-05-09 14:00 9.22997 -80.88842 36929 ft 467 kts 108°
2026-05-09 14:00 9.20192 -80.80554 36929 ft 467 kts 108°
2026-05-09 14:01 9.18081 -80.74328 36929 ft 467 kts 108°
2026-05-09 14:01 9.15969 -80.68108 36930 ft 467 kts 108°
2026-05-09 14:02 9.13856 -80.61887 36928 ft 467 kts 108°
2026-05-09 14:02 9.11742 -80.55666 36929 ft 467 kts 108°
2026-05-09 14:03 9.09641 -80.49486 36929 ft 467 kts 108°
2026-05-09 14:03 9.07512 -80.43231 36911 ft 466 kts 108°
2026-05-09 14:04 9.05735 -80.37029 36915 ft 452 kts 101°
2026-05-09 14:04 9.04560 -80.30800 36926 ft 449 kts 100°
2026-05-09 14:05 9.03414 -80.24586 36929 ft 449 kts 100°
2026-05-09 14:05 9.02253 -80.18371 36905 ft 449 kts 100°
2026-05-09 14:06 9.01085 -80.12157 36911 ft 449 kts 100°
2026-05-09 14:06 8.99915 -80.05948 36910 ft 448 kts 100°
2026-05-09 14:07 8.98753 -79.99786 36915 ft 448 kts 100°
2026-05-09 14:07 8.97579 -79.93570 36908 ft 449 kts 100°
2026-05-09 14:08 8.96406 -79.87356 36906 ft 449 kts 100°
2026-05-09 14:08 8.95232 -79.81145 36911 ft 449 kts 100°
2026-05-09 14:09 8.94254 -79.75989 36909 ft 449 kts 100°
2026-05-09 14:09 8.93076 -79.69775 36904 ft 449 kts 100°
2026-05-09 14:10 8.91310 -79.60461 36906 ft 449 kts 100°
2026-05-09 14:10 8.90874 -79.57366 36890 ft 437 kts 95°
2026-05-09 14:11 8.90591 -79.54357 36884 ft 423 kts 94°
2026-05-09 14:11 8.90083 -79.48539 36906 ft 412 kts 92°
2026-05-09 14:11 8.90279 -79.45655 36886 ft 410 kts 73°
2026-05-09 14:12 8.91402 -79.43020 36904 ft 408 kts 54°
2026-05-09 14:12 8.93318 -79.40931 36907 ft 406 kts 34°
2026-05-09 14:12 8.95810 -79.39619 36918 ft 404 kts 15°
2026-05-09 14:12 8.98577 -79.39238 36910 ft 403 kts 355°
2026-05-09 14:13 9.01365 -79.39560 36936 ft 403 kts 356°
2026-05-09 14:14 9.20464 -79.35101 36913 ft 405 kts 13°
2026-05-09 14:15 9.23192 -79.34405 36915 ft 405 kts 13°
2026-05-09 14:15 9.28655 -79.33013 36913 ft 404 kts 13°
2026-05-09 14:16 9.34109 -79.31616 36927 ft 404 kts 13°
2026-05-09 14:16 9.39557 -79.30218 36913 ft 404 kts 13°
2026-05-09 14:17 9.45006 -79.28820 36920 ft 404 kts 13°
2026-05-09 14:17 9.50454 -79.27419 36914 ft 403 kts 13°
2026-05-09 14:18 9.55893 -79.26014 36914 ft 403 kts 13°
2026-05-09 14:18 9.61330 -79.24611 36928 ft 403 kts 13°
2026-05-09 14:19 9.66772 -79.23208 36919 ft 403 kts 13°
2026-05-09 14:19 9.72172 -79.21816 36928 ft 403 kts 13°
2026-05-09 14:20 9.77614 -79.20414 36911 ft 403 kts 13°
2026-05-09 14:20 9.83055 -79.19014 36912 ft 403 kts 13°
2026-05-09 14:21 9.91217 -79.16917 36922 ft 403 kts 13°
2026-05-09 14:21 9.96659 -79.15520 36921 ft 403 kts 13°
2026-05-09 14:22 10.02098 -79.14125 36912 ft 403 kts 13°
2026-05-09 14:22 10.07534 -79.12722 36915 ft 403 kts 13°
2026-05-09 14:23 10.12960 -79.11311 36927 ft 402 kts 13°
2026-05-09 14:23 10.18341 -79.09911 36921 ft 402 kts 13°
2026-05-09 14:24 10.23759 -79.08503 36910 ft 402 kts 13°
2026-05-09 14:24 10.29175 -79.07097 36927 ft 402 kts 13°
2026-05-09 14:25 10.34592 -79.05692 36915 ft 402 kts 13°
2026-05-09 14:25 10.40007 -79.04290 36929 ft 402 kts 13°
2026-05-09 14:26 10.45426 -79.02888 36928 ft 402 kts 13°
2026-05-09 14:26 10.50840 -79.01490 36910 ft 401 kts 13°
2026-05-09 14:27 10.56254 -79.00092 36919 ft 401 kts 13°
2026-05-09 14:27 10.61672 -78.98696 36917 ft 401 kts 13°
2026-05-09 14:28 10.67087 -78.97302 36919 ft 401 kts 13°
2026-05-09 14:28 10.72496 -78.95912 36918 ft 401 kts 13°
2026-05-09 14:29 10.77908 -78.94521 36910 ft 401 kts 13°
2026-05-09 14:29 10.83310 -78.93125 36916 ft 400 kts 13°
2026-05-09 14:30 10.88710 -78.91732 36927 ft 400 kts 13°
2026-05-09 14:30 10.94111 -78.90341 36918 ft 400 kts 13°
2026-05-09 14:31 10.99474 -78.88961 36911 ft 400 kts 13°
2026-05-09 14:31 11.04871 -78.87575 36926 ft 400 kts 13°
2026-05-09 14:32 11.10266 -78.86187 36919 ft 399 kts 13°
2026-05-09 14:32 11.15655 -78.84797 36924 ft 399 kts 13°
2026-05-09 14:33 11.21040 -78.83408 36915 ft 399 kts 13°
2026-05-09 14:33 11.26429 -78.82023 36917 ft 399 kts 13°
2026-05-09 14:34 11.31817 -78.80642 36928 ft 399 kts 13°
2026-05-09 14:34 11.37197 -78.79261 36919 ft 399 kts 13°
2026-05-09 14:35 11.42577 -78.77882 36921 ft 398 kts 13°
2026-05-09 14:35 11.45246 -78.77197 36743 ft 393 kts 13°
2026-05-09 14:35 11.47895 -78.76519 36308 ft 391 kts 13°
2026-05-09 14:36 11.50527 -78.75848 35853 ft 389 kts 13°
2026-05-09 14:36 11.53120 -78.75254 35419 ft 386 kts
2026-05-09 14:36 11.55823 -78.75083 34914 ft 384 kts 357°
2026-05-09 14:36 11.58473 -78.75353 34130 ft 394 kts 348°
2026-05-09 14:37 11.61212 -78.76113 33650 ft 418 kts 340°
2026-05-09 14:37 11.63873 -78.77364 33891 ft 423 kts 330°
2026-05-09 14:37 11.66316 -78.79042 34321 ft 423 kts 321°
2026-05-09 14:37 11.68451 -78.81118 34750 ft 424 kts 311°
2026-05-09 14:38 11.70208 -78.83534 35172 ft 425 kts 302°
2026-05-09 14:38 11.71538 -78.86224 35598 ft 425 kts 292°
2026-05-09 14:38 11.72405 -78.89118 35907 ft 429 kts 283°
2026-05-09 14:38 11.72780 -78.92174 35931 ft 439 kts 272°
2026-05-09 14:39 11.72608 -78.95331 35939 ft 450 kts 262°
2026-05-09 14:39 11.71863 -78.98480 35940 ft 461 kts 252°
2026-05-09 14:39 11.70538 -79.01499 35941 ft 472 kts 241°
2026-05-09 14:39 11.68636 -79.04272 35941 ft 482 kts 230°
2026-05-09 14:40 11.66198 -79.06668 35940 ft 492 kts 219°
2026-05-09 14:40 11.63296 -79.08564 35939 ft 499 kts 207°
2026-05-09 14:40 11.60047 -79.09847 35939 ft 502 kts 195°
2026-05-09 14:40 11.56604 -79.10444 35941 ft 504 kts 185°
2026-05-09 14:41 11.49931 -79.12113 35922 ft 500 kts 211°
2026-05-09 14:41 11.44657 -79.16537 35921 ft 478 kts 230°
2026-05-09 14:42 11.42638 -79.19158 35923 ft 462 kts 235°
2026-05-09 14:42 11.40582 -79.21616 35904 ft 449 kts 224°
2026-05-09 14:42 11.38124 -79.23493 35911 ft 435 kts 210°
2026-05-09 14:42 11.35378 -79.24665 35911 ft 422 kts 195°
2026-05-09 14:43 11.29697 -79.25748 35927 ft 414 kts 189°
2026-05-09 14:43 11.24010 -79.26613 35928 ft 413 kts 189°
2026-05-09 14:44 11.18325 -79.27467 35928 ft 413 kts 189°
2026-05-09 14:44 11.12633 -79.28323 35930 ft 413 kts 189°
2026-05-09 14:45 11.06986 -79.29170 35929 ft 413 kts 189°
2026-05-09 14:45 11.01301 -79.30022 35929 ft 413 kts 189°
2026-05-09 14:46 10.95620 -79.30874 35929 ft 412 kts 189°
2026-05-09 14:46 10.89943 -79.31725 35928 ft 412 kts 189°
2026-05-09 14:47 10.84263 -79.32577 35929 ft 412 kts 189°
2026-05-09 14:47 10.78596 -79.33435 35928 ft 411 kts 189°
2026-05-09 14:48 10.72935 -79.34293 35929 ft 411 kts 189°
2026-05-09 14:48 10.67274 -79.35151 35931 ft 411 kts 190°
2026-05-09 14:49 10.64503 -79.35842 35924 ft 410 kts 201°
2026-05-09 14:49 10.61900 -79.37015 35926 ft 409 kts 211°
2026-05-09 14:49 10.56851 -79.39652 35927 ft 415 kts 195°
2026-05-09 14:50 10.53973 -79.40184 35935 ft 426 kts 185°
2026-05-09 14:50 10.50994 -79.40445 35938 ft 436 kts 187°
2026-05-09 14:50 10.44855 -79.41314 35936 ft 455 kts 189°
2026-05-09 14:51 10.38459 -79.42290 35936 ft 474 kts 189°
2026-05-09 14:51 10.31806 -79.43314 35930 ft 492 kts 189°
2026-05-09 14:52 10.25010 -79.44362 35929 ft 500 kts 189°
2026-05-09 14:52 10.18118 -79.45427 35929 ft 501 kts 189°
2026-05-09 14:53 10.11229 -79.46492 35928 ft 501 kts 189°
2026-05-09 14:53 10.04368 -79.47555 35726 ft 493 kts 189°
2026-05-09 14:54 10.00983 -79.48080 35170 ft 491 kts 189°
2026-05-09 14:54 9.97611 -79.48604 34590 ft 489 kts 189°
2026-05-09 14:54 9.94255 -79.49126 34060 ft 486 kts 189°
2026-05-09 14:54 9.90922 -79.49642 33552 ft 482 kts 188°
2026-05-09 14:55 9.87582 -79.49783 33000 ft 480 kts 176°
2026-05-09 14:55 9.84302 -79.49258 32515 ft 476 kts 167°
2026-05-09 14:55 9.81140 -79.48324 32050 ft 471 kts 160°
2026-05-09 14:55 9.78099 -79.47105 31571 ft 467 kts 156°
2026-05-09 14:56 9.76134 -79.46238 31263 ft 464 kts 156°
2026-05-09 14:56 9.73192 -79.44911 30793 ft 460 kts 155°
2026-05-09 14:56 9.70281 -79.43591 30301 ft 456 kts 155°
2026-05-09 14:56 9.67393 -79.42286 29813 ft 453 kts 155°
2026-05-09 14:57 9.64524 -79.40992 29350 ft 449 kts 155°
2026-05-09 14:57 9.61682 -79.39716 28866 ft 445 kts 155°
2026-05-09 14:57 9.58857 -79.38453 28376 ft 442 kts 155°
2026-05-09 14:57 9.56049 -79.37206 27885 ft 439 kts 155°
2026-05-09 14:58 9.53264 -79.35974 27398 ft 436 kts 155°
2026-05-09 14:58 9.50492 -79.34756 26905 ft 432 kts 155°
2026-05-09 14:58 9.47739 -79.33552 26414 ft 429 kts 155°
2026-05-09 14:58 9.45005 -79.32363 25932 ft 426 kts 155°
2026-05-09 14:59 9.42281 -79.31185 25441 ft 423 kts 155°
2026-05-09 14:59 9.39580 -79.30025 24951 ft 420 kts 155°
2026-05-09 14:59 9.36909 -79.28880 24112 ft 415 kts 155°
2026-05-09 14:59 9.34256 -79.27751 23220 ft 409 kts 155°
2026-05-09 15:00 9.31652 -79.26651 22367 ft 402 kts 155°
2026-05-09 15:00 9.29089 -79.25572 21499 ft 396 kts 155°
2026-05-09 15:00 9.26560 -79.24511 20634 ft 390 kts 155°
2026-05-09 15:00 9.24107 -79.23484 19796 ft 384 kts 155°
2026-05-09 15:01 9.19237 -79.21468 18098 ft 372 kts 155°
2026-05-09 15:01 9.16856 -79.20489 17256 ft 366 kts 155°
2026-05-09 15:01 9.14510 -79.19524 16419 ft 361 kts 155°
2026-05-09 15:02 9.12182 -79.18626 15571 ft 357 kts 163°
2026-05-09 15:02 9.09711 -79.18410 14675 ft 359 kts 185°
2026-05-09 15:02 9.07337 -79.19124 13861 ft 357 kts 205°
2026-05-09 15:02 9.05212 -79.20395 13080 ft 352 kts 211°
2026-05-09 15:03 9.03183 -79.21769 12235 ft 349 kts 212°
2026-05-09 15:03 9.01195 -79.23151 11422 ft 344 kts 212°
2026-05-09 15:03 8.99231 -79.24518 10596 ft 340 kts 212°
2026-05-09 15:03 8.97288 -79.25860 9764 ft 336 kts 212°
2026-05-09 15:04 8.95362 -79.27177 9019 ft 331 kts 212°
2026-05-09 15:04 8.93496 -79.28439 8633 ft 314 kts 212°
2026-05-09 15:06 8.82805 -79.35631 6545 ft 231 kts 212°
2026-05-09 15:06 8.81467 -79.36526 6071 ft 230 kts 212°
2026-05-09 15:06 8.80138 -79.37411 5781 ft 229 kts 212°
2026-05-09 15:06 8.78805 -79.38295 5516 ft 229 kts 213°
2026-05-09 15:07 8.77690 -79.39417 5193 ft 228 kts 241°
2026-05-09 15:07 8.77335 -79.40956 4887 ft 226 kts 269°
2026-05-09 15:07 8.77517 -79.42520 4585 ft 223 kts 292°
2026-05-09 15:07 8.78417 -79.43759 4293 ft 218 kts 319°
2026-05-09 15:08 8.79585 -79.44736 3985 ft 217 kts 323°
2026-05-09 15:08 8.81968 -79.46582 3393 ft 214 kts 324°
2026-05-09 15:08 8.83145 -79.47489 3095 ft 212 kts 324°
2026-05-09 15:09 8.84313 -79.48388 2786 ft 210 kts 324°
2026-05-09 15:10 8.92772 -79.46110 1821 ft 189 kts 31°
2026-05-09 15:11 8.93918 -79.45453 1823 ft 189 kts 31°
2026-05-09 15:11 8.95063 -79.44801 1812 ft 189 kts 31°
2026-05-09 15:11 8.96211 -79.44149 1823 ft 189 kts 31°
2026-05-09 15:11 8.97360 -79.43494 1713 ft 189 kts 31°
2026-05-09 15:12 8.98498 -79.42844 1451 ft 183 kts 31°
2026-05-09 15:12 8.99575 -79.42229 1204 ft 172 kts 31°
2026-05-09 15:12 9.00577 -79.41656 989 ft 159 kts 31°
2026-05-09 15:12 9.01518 -79.41118 734 ft 153 kts 31°
2026-05-09 15:13 9.02442 -79.40582 557 ft 153 kts 31°
2026-05-09 15:13 9.03365 -79.40054 395 ft 152 kts 31°
2026-05-09 15:13 9.04286 -79.39525 127 ft 151 kts 30°
2026-05-09 15:13 9.05163 -79.39034 39 ft 123 kts 29°
2026-05-09 15:14 9.05686 -79.38736 40 ft 53 kts 29°
2026-05-09 15:14 9.05990 -79.38562 40 ft 51 kts 29°
2026-05-09 15:14 9.06168 -79.38462 38 ft 19 kts 29°
2026-05-09 15:14 9.06290 -79.38393 39 ft 14 kts 26°
2026-05-09 15:15 9.06401 -79.38377 38 ft 18 kts
2026-05-09 15:15 9.06540 -79.38376 38 ft 21 kts 360°
2026-05-09 15:15 9.06646 -79.38413 38 ft 7 kts 307°
2026-05-09 15:15 9.06680 -79.38439 38 ft 7 kts 352°
2026-05-09 15:16 9.06727 -79.38461 38 ft 9 kts 318°
2026-05-09 15:16 9.06749 -79.38481 38 ft 0 kts 318°
2026-05-09 15:16 9.06746 -79.38478 38 ft 0 kts 318°